[[{"header":{"parameterUnit":"m.s-1","parameterCategory":1,"la1":30.2991,"la2":30.254,"lo1":-89.0895,"lo2":-89.0444,"dy":0.0017,"dx":0.0017,"nx":28,"ny":28,"refTime":"2023-09-27T03:00:00:Z","depth":0,"parameterNumber":2,"parameterNumberName":"U-component_of_WINDS"},"data":[0,0,0,0,0,0,0,0,0,0,0,0,0,0,0,0,0,0,0,0,0,0,0,0,0,0,0,0,0,0,0,0,0,0,0,0,0,0,0,0,0,0,0,0,0,0,0,0,0,0,0,0,0,0,0,0,0,0,-5.85,-5.85,0,-5.8505,-5.8505,-5.8505,-5.835,-5.8346,-5.8342,-5.8338,-5.8341,-5.8345,-5.8349,0,0,0,0,0,0,0,0,0,0,0,0,0,-5.8356,-5.8359,-5.85,-5.85,-5.85,-5.8505,-5.8505,-5.8505,-5.8351,-5.8346,-5.8341,-5.8336,-5.834,-5.8345,-5.8349,0,0,0,0,0,0,0,0,0,0,0,0,0,-5.8395,-5.836,-5.85,-5.8424,-5.8417,-5.8505,-5.8505,-5.8505,-5.8352,-5.8346,-5.8339,-5.8334,-5.8338,-5.8344,-5.835,-5.851,0,0,-5.8368,-5.8371,0,0,0,0,0,0,0,0,-5.8393,-5.8401,-5.8435,-5.8429,-5.8422,-5.842,-5.8455,-5.8507,-5.8353,-5.8377,-5.8338,-5.8331,-5.8373,-5.8375,-5.839,-5.851,-5.851,-5.8368,-5.8372,-5.8375,-5.8376,0,0,0,0,0,0,0,-5.8391,-5.84,-5.8502,-5.8436,-5.8428,-5.8389,-5.8388,-5.8464,-5.8409,-5.8374,-5.8363,-5.8366,-5.8368,-5.8384,-5.8389,-5.851,-5.8368,-5.8374,-5.8377,-5.8379,-5.8762,-5.8768,0,0,0,0,0,0,-5.8399,-5.8398,-5.8502,-5.8502,-5.8392,-5.8397,-5.8395,-5.8427,-5.8408,-5.8399,-5.8371,-5.8358,-5.8377,-5.8382,-5.8388,-5.8573,-5.8375,-5.838,-5.8383,-5.8755,-5.8763,-5.877,0,0,0,0,0,0,-5.8396,-5.8409,-5.8501,-5.8447,-5.8456,-5.8406,-5.8443,-5.8431,-5.8447,-5.8405,-5.8395,-5.8398,-5.8373,-5.838,-5.8481,-5.8571,-5.8383,-5.8388,-5.8747,-5.8758,-5.8767,-5.8946,0,0,0,0,0,0,-5.8393,-5.8409,-5.847,-5.845,-5.8459,-5.8595,-5.8448,-5.8435,-5.8458,-5.8441,-5.8428,-5.842,-5.8368,-5.8473,-5.8487,-5.8576,-5.8393,-5.8739,-5.8752,-5.8764,-5.8932,-5.8961,-5.8986,0,0,0,0,0,-5.8388,-5.852,-5.8474,-5.8487,-5.8534,-5.8601,-5.8606,-5.8544,-5.8466,-5.8526,-5.8499,-5.842,-5.856,-5.8485,-5.8499,-5.8591,-5.8733,-5.8748,-5.8763,-5.892,-5.8955,-5.8985,0,0,0,0,0,0,-5.8552,-5.8516,-5.8464,-5.8594,-5.8602,-5.8574,-5.8648,-5.8584,-5.8614,-5.8597,-5.8519,-5.8517,-5.8631,-5.8621,-5.8538,-5.8745,-5.8632,-5.8651,-5.8747,-5.878,-5.8807,-5.8806,-5.8398,0,0,0,0,0,-5.8603,-5.8661,-5.8626,-5.8744,-5.875,-5.87,-5.8726,-5.8678,-5.8682,-5.8684,-5.8665,-5.8672,-5.8717,-5.8748,-5.8787,-5.893,-5.8924,-5.9001,-5.9028,-5.905,-5.9067,-5.9141,-5.9174,-5.8819,-5.8819,-5.8819,0,0,-5.871,-5.8697,-5.8738,-5.8776,-5.8776,-5.8837,-5.8703,-5.8773,-5.8816,-5.8695,-5.8788,-5.8775,-5.8777,-5.89,-5.8953,-5.8896,-5.9164,-5.9069,-5.9087,-5.9091,-5.9159,-5.9193,-5.9223,-5.8829,-5.8828,-5.8826,0,0,-5.8934,-5.8931,-5.9028,-5.9031,-5.9034,-5.8999,-5.9023,-5.9005,-5.8992,-5.9085,-5.8995,-5.9046,-5.9125,-5.913,-5.9144,-5.9371,-5.9299,-5.9386,-5.9527,-5.96,-5.9628,-5.9652,-5.9732,-5.9762,-5.9403,-5.9404,-5.9404,0,-5.9065,-5.9153,-5.9086,-5.9162,-5.9181,-5.9075,-5.9172,-5.9178,-5.9193,-5.9209,-5.9144,-5.9242,-5.9236,-5.9358,-5.9414,-5.9428,-5.9452,-5.9386,-5.9629,-5.9653,-5.9675,-5.975,-5.978,-5.9414,-5.9413,-5.9412,-5.9411,0,-5.9314,-5.9377,-5.9455,-5.9473,-5.9501,-5.9588,-5.9533,-5.9569,-5.9519,-5.9491,-5.9588,-5.9577,-5.9612,-5.9638,-5.9589,-5.9753,-5.9717,-5.9643,-5.9528,-5.972,-5.9789,-5.9818,-5.9429,-5.9425,-5.9422,-5.9419,0,0,-5.9641,-5.9621,-5.9651,-5.9657,-5.9652,-5.9698,-5.978,-5.9815,-5.9847,-5.9862,-5.9927,-5.9997,-5.9928,-5.9943,-5.9895,-5.9959,-6.0139,-5.9876,-5.9875,-5.9924,-6.0317,-6.0373,-6.0407,-6.0092,-6.0097,-6.0101,-6.0317,0,-5.9857,-5.9995,-5.9938,-6.0081,-6.0137,-6.0037,-6.0108,-6.0113,-6.0089,-6.0133,-6.0106,-6.0157,-6.0063,-6.0071,-6.0131,-6.0105,-6.0216,-6.0088,-6.0151,-6.0154,-6.0152,-6.0443,-6.0502,-6.0705,-6.0344,-6.0348,-6.0351,0,-6.0128,-6.0154,-6.0303,-6.0288,-6.0309,-6.0374,-6.0401,-6.0445,-6.0448,-6.0426,-6.0444,-6.0381,-6.0459,-6.0346,-6.0452,-6.0366,-6.0389,-6.038,-6.0387,-6.0389,-6.0263,-6.0452,-6.0769,-6.0799,-6.0394,-6.039,-6.0387,0,-6.0349,-6.0422,-6.052,-6.0529,-6.0514,-6.0562,-6.0558,-6.0554,-6.0579,-6.0603,-6.0617,-6.0651,-6.0668,-6.0695,-6.0642,-6.0565,-6.0756,-6.0638,-6.0739,-6.074,-6.0782,-6.078,-6.1105,-6.08,-6.0799,-6.0799,-6.0798,0,-6.0596,-6.0691,-6.0619,-6.0679,-6.0783,-6.0715,-6.0819,-6.0804,-6.0802,-6.0858,-6.0774,-6.0827,-6.0755,-6.0802,-6.0761,-6.0855,-6.0864,-6.0848,-6.0836,-6.0854,-6.0856,-6.0867,-6.0851,-6.0807,-6.0805,-6.0803,-6.0802,0,-6.086,-6.0816,-6.0916,-6.0894,-6.0891,-6.0968,-6.0948,-6.1003,-6.0974,-6.1045,-6.1058,-6.1012,-6.1063,-6.1014,-6.1061,-6.1034,-6.1159,-6.1127,-6.1158,-6.1148,-6.1251,-6.1241,-6.1593,-6.1635,-6.1305,-6.1308,-6.1311,0,-6.1019,-6.109,-6.1076,-6.1107,-6.1109,-6.116,-6.1185,-6.1122,-6.1151,-6.116,-6.1213,-6.1257,-6.1288,-6.1373,-6.1344,-6.138,-6.1347,-6.1468,-6.1352,-6.1368,-6.1347,-6.1343,-6.1349,-6.1491,-6.1495,-6.1498,-6.1501,0,-6.1307,-6.1282,-6.1321,-6.1353,-6.1385,-6.1407,-6.1423,-6.1453,-6.1388,-6.1425,-6.1475,-6.15,-6.1549,-6.1592,-6.162,-6.1614,-6.1547,-6.1538,-6.1563,-6.1582,-6.1596,-6.1588,-6.1221,-6.153,-6.1527,-6.1525,-6.1523,-6.1522,-6.1522,-6.158,-6.1579,-6.1625,-6.1631,-6.1647,-6.1697,-6.1675,-6.1716,-6.1751,-6.1712,-6.1774,-6.1775,-6.1804,-6.1807,-6.1855,-6.1803,-6.184,-6.1848,-6.1858,-6.1873,-6.1591,-6.1859,-6.1859,-6.1858,-6.1857,-6.1856,0,-6.1804,-6.1798,-6.1842,-6.1866,-6.1903,-6.1838,-6.1852,-6.1886,-6.1942,-6.1949,-6.1982,-6.204,-6.2082,-6.2057,-6.2093,-6.2136,-6.2106,-6.2147,-6.2143,-6.2142,-6.1917,-6.1891,-6.2171,-6.2171,-6.2171,-6.2171,-6.2171,-6.2171,-6.1954,-6.2049,-6.2024,-6.2119,-6.2113,-6.2173,-6.2187,-6.2202,-6.2206,-6.2276,-6.2311,-6.2294,-6.2288,-6.2323,-6.2359,-6.235,-6.2367,-6.242,-6.24,-6.2189,-6.2158,-6.2129,-6.2104,-6.2424,-6.2425,-6.2621,-6.2623,-6.2624]},{"header":{"parameterUnit":"m.s-1","parameterCategory":1,"la1":30.2991,"la2":30.254,"lo1":-89.0895,"lo2":-89.0444,"dy":0.0017,"dx":0.0017,"nx":28,"ny":28,"refTime":"2023-09-27T03:00:00:Z","depth":0,"parameterNumber":3,"parameterNumberName":"V-component_of_WINDS"},"data":[0,0,0,0,0,0,0,0,0,0,0,0,0,0,0,0,0,0,0,0,0,0,0,0,0,0,0,0,0,0,0,0,0,0,0,0,0,0,0,0,0,0,0,0,0,0,0,0,0,0,0,0,0,0,0,0,0,0,-2.2192,-2.2193,0,-2.2295,-2.2296,-2.2297,-2.2288,-2.2286,-2.2285,-2.2283,-2.2389,-2.2393,-2.2397,0,0,0,0,0,0,0,0,0,0,0,0,0,-2.1987,-2.1991,-2.2192,-2.2193,-2.2195,-2.2295,-2.2296,-2.2297,-2.2288,-2.2286,-2.2284,-2.2282,-2.2387,-2.2392,-2.2397,0,0,0,0,0,0,0,0,0,0,0,0,0,-2.2081,-2.1992,-2.2192,-2.2202,-2.2204,-2.2294,-2.2296,-2.2298,-2.2289,-2.2286,-2.2284,-2.2282,-2.2386,-2.2392,-2.2398,-2.2485,0,0,-2.2418,-2.2421,0,0,0,0,0,0,0,0,-2.2076,-2.2089,-2.2199,-2.2201,-2.2204,-2.2276,-2.2262,-2.2361,-2.2289,-2.2256,-2.2283,-2.228,-2.2353,-2.2362,-2.2387,-2.249,-2.2495,-2.2418,-2.2422,-2.2425,-2.2427,0,0,0,0,0,0,0,-2.207,-2.2085,-2.2233,-2.2201,-2.2204,-2.2201,-2.2212,-2.2281,-2.2317,-2.2259,-2.2259,-2.2271,-2.2354,-2.238,-2.2389,-2.2496,-2.2418,-2.2424,-2.2428,-2.243,-2.2675,-2.2677,0,0,0,0,0,0,-2.2061,-2.2079,-2.2229,-2.2236,-2.2133,-2.2207,-2.2219,-2.2255,-2.2316,-2.2323,-2.2273,-2.227,-2.2371,-2.2381,-2.2393,-2.2498,-2.2425,-2.2431,-2.2435,-2.2672,-2.2675,-2.2678,0,0,0,0,0,0,-2.2056,-2.2074,-2.2225,-2.2157,-2.2176,-2.2213,-2.2254,-2.2258,-2.2285,-2.2326,-2.2333,-2.2293,-2.2369,-2.2384,-2.2462,-2.2501,-2.2434,-2.244,-2.2669,-2.2673,-2.2677,-2.2709,0,0,0,0,0,0,-2.205,-2.2073,-2.2106,-2.2158,-2.218,-2.2293,-2.2256,-2.2262,-2.2296,-2.2293,-2.2347,-2.2354,-2.2368,-2.2452,-2.2468,-2.2509,-2.2445,-2.2666,-2.2671,-2.2675,-2.2704,-2.2713,-2.2721,0,0,0,0,0,-2.2043,-2.2112,-2.2108,-2.2126,-2.2223,-2.2295,-2.2308,-2.2323,-2.2299,-2.2333,-2.2359,-2.2352,-2.2494,-2.246,-2.2478,-2.2521,-2.2663,-2.2669,-2.2675,-2.27,-2.2711,-2.2721,0,0,0,0,0,0,-2.2064,-2.2119,-2.2115,-2.2203,-2.2244,-2.2294,-2.2337,-2.2334,-2.2384,-2.2379,-2.2396,-2.2408,-2.2487,-2.2512,-2.2473,-2.2608,-2.2575,-2.2585,-2.2589,-2.2599,-2.2608,-2.26,-2.245,0,0,0,0,0,-2.2078,-2.2133,-2.2178,-2.225,-2.2271,-2.2301,-2.2333,-2.2341,-2.2384,-2.2402,-2.2434,-2.2477,-2.2531,-2.2567,-2.2619,-2.2708,-2.2719,-2.2746,-2.2754,-2.2761,-2.2769,-2.2817,-2.2829,-2.2698,-2.2698,-2.2697,0,0,-2.2109,-2.2146,-2.2179,-2.2255,-2.2289,-2.2344,-2.2316,-2.2376,-2.2417,-2.2411,-2.2487,-2.2512,-2.2561,-2.2644,-2.2683,-2.2668,-2.2808,-2.2768,-2.2773,-2.2778,-2.2824,-2.2837,-2.2848,-2.2702,-2.2701,-2.27,0,0,-2.2194,-2.2228,-2.2291,-2.2325,-2.2375,-2.2394,-2.2409,-2.2459,-2.2475,-2.2551,-2.2548,-2.2597,-2.269,-2.2725,-2.2755,-2.2851,-2.2846,-2.2868,-2.2911,-2.2957,-2.2968,-2.2977,-2.3011,-2.3023,-2.2876,-2.2876,-2.2876,0,-2.2226,-2.231,-2.2324,-2.2385,-2.2418,-2.2415,-2.2479,-2.2511,-2.2576,-2.2599,-2.2581,-2.2697,-2.273,-2.2821,-2.2844,-2.2869,-2.2886,-2.2862,-2.2965,-2.2975,-2.2983,-2.3016,-2.3029,-2.2878,-2.2878,-2.2877,-2.2877,0,-2.2346,-2.2404,-2.245,-2.2512,-2.255,-2.2612,-2.2636,-2.2673,-2.2677,-2.2697,-2.2774,-2.2813,-2.2873,-2.2895,-2.29,-2.2987,-2.2976,-2.2961,-2.2929,-2.2998,-2.3029,-2.3041,-2.2881,-2.288,-2.288,-2.2879,0,0,-2.2448,-2.2516,-2.2533,-2.256,-2.2615,-2.266,-2.2722,-2.278,-2.2811,-2.2855,-2.2907,-2.2985,-2.2972,-2.3006,-2.3015,-2.3055,-2.3128,-2.3036,-2.3037,-2.3051,-2.3225,-2.3235,-2.325,-2.3125,-2.3127,-2.3129,-2.3221,0,-2.2537,-2.2646,-2.2661,-2.2757,-2.281,-2.2807,-2.2861,-2.29,-2.2921,-2.2969,-2.2991,-2.3046,-2.3025,-2.3045,-2.3085,-2.3111,-2.3163,-2.3104,-2.3173,-2.3175,-2.3161,-2.3266,-2.3277,-2.3362,-2.3233,-2.3235,-2.3237,0,-2.2657,-2.2704,-2.2806,-2.2852,-2.2875,-2.2923,-2.2977,-2.3023,-2.3067,-2.3079,-2.3116,-2.3119,-2.3182,-2.3147,-2.3234,-2.3194,-2.3223,-2.3239,-2.3243,-2.325,-2.321,-2.3275,-2.3389,-2.3402,-2.3256,-2.3254,-2.3253,0,-2.272,-2.2809,-2.2881,-2.2905,-2.2961,-2.2995,-2.302,-2.3061,-2.3095,-2.3142,-2.3163,-2.3217,-2.3247,-2.3288,-2.3305,-2.3278,-2.3391,-2.3358,-2.3403,-2.3402,-2.3427,-2.3425,-2.3546,-2.3445,-2.3445,-2.3445,-2.3445,0,-2.2818,-2.2881,-2.291,-2.2954,-2.3024,-2.3039,-2.3107,-2.3131,-2.3167,-2.3216,-2.3217,-2.3262,-2.3283,-2.3332,-2.3346,-2.3415,-2.3429,-2.344,-2.3443,-2.344,-2.3438,-2.3459,-2.3453,-2.3448,-2.3448,-2.3447,-2.3446,0,-2.2901,-2.2923,-2.3001,-2.3047,-2.3061,-2.3109,-2.3149,-2.3192,-2.3211,-2.3273,-2.3288,-2.3319,-2.3376,-2.3397,-2.3467,-2.3477,-2.3557,-2.3555,-2.3542,-2.3543,-2.3586,-2.3581,-2.3725,-2.3744,-2.3631,-2.3632,-2.3633,0,-2.2962,-2.301,-2.3061,-2.3093,-2.3119,-2.3172,-2.3205,-2.3222,-2.3257,-2.331,-2.3347,-2.3403,-2.345,-2.3541,-2.357,-2.3623,-2.3622,-2.3669,-2.363,-2.3625,-2.3623,-2.3619,-2.3624,-2.3676,-2.3677,-2.3678,-2.3679,0,-2.3068,-2.3077,-2.3125,-2.3178,-2.3218,-2.3261,-2.3302,-2.3328,-2.3351,-2.339,-2.3449,-2.3484,-2.3555,-2.3611,-2.3666,-2.3691,-2.3689,-2.3691,-2.3704,-2.3701,-2.3691,-2.3697,-2.3561,-2.3687,-2.3687,-2.3686,-2.3685,-2.3685,-2.3142,-2.3183,-2.3226,-2.328,-2.3312,-2.335,-2.3392,-2.3417,-2.3466,-2.3524,-2.3531,-2.3593,-2.3635,-2.3708,-2.3736,-2.3785,-2.3772,-2.3791,-2.3796,-2.3801,-2.3803,-2.3683,-2.3795,-2.3794,-2.3794,-2.3794,-2.3794,0,-2.3247,-2.3274,-2.3324,-2.3381,-2.3423,-2.3417,-2.3462,-2.3497,-2.3552,-2.3591,-2.3637,-2.3703,-2.3757,-2.379,-2.3844,-2.3877,-2.3877,-2.3891,-2.3888,-2.3894,-2.3812,-2.3795,-2.3889,-2.3889,-2.3889,-2.3889,-2.3889,-2.3889,-2.3307,-2.3378,-2.3391,-2.3477,-2.3503,-2.3564,-2.359,-2.3625,-2.3656,-2.373,-2.3775,-2.3795,-2.3832,-2.3889,-2.3938,-2.3946,-2.3966,-2.398,-2.3987,-2.391,-2.39,-2.3891,-2.3875,-2.3985,-2.3985,-2.4066,-2.4066,-2.4067]}]]